This is the latest recevied weather packets stored in our database for station/object WB5LJZ-5. If no packets are shown the sender has not sent any weather packets the latest 10 day(s).
| Time | Temp. | Humidity | Pressure | Rain* | Wind** | Luminosity | Snow |
|---|---|---|---|---|---|---|---|
| 1777627197 | 16.67° C | - | - | 1.78 mm | 0.45 m/s, 51° | - | - |
| 1777626561 | 16.67° C | - | - | 1.78 mm | 6.71 m/s, 31° | - | - |
| 1777625925 | 16.67° C | - | - | 1.78 mm | 4.92 m/s, 352° | - | - |
| 1777625290 | 16.67° C | - | - | 1.78 mm | 5.36 m/s, 3° | - | - |
| 1777624654 | 16.67° C | - | - | 9.91 mm | 4.92 m/s, 319° | - | - |
| 1777624018 | 16.67° C | - | - | 9.91 mm | 6.71 m/s, 352° | - | - |
| 1777623382 | 16.67° C | - | - | 9.91 mm | 2.24 m/s, 38° | - | - |
| 1777622746 | 16.67° C | - | - | 9.91 mm | 4.47 m/s, 25° | - | - |
| 1777622111 | 16.67° C | - | - | 9.91 mm | 5.81 m/s, 34° | - | - |
| 1777621475 | 16.67° C | - | - | 9.91 mm | 6.71 m/s, 14° | - | - |
| 1777620839 | 17.22° C | - | - | 0.76 mm | 5.36 m/s, 31° | - | - |
| 1777620203 | 17.22° C | - | - | 0.76 mm | 4.92 m/s, 329° | - | - |
| 1777619568 | 17.22° C | - | - | 0.76 mm | 3.58 m/s, 298° | - | - |
| 1777618932 | 17.78° C | - | - | 0.76 mm | 5.36 m/s, 6° | - | - |
| 1777618296 | 17.78° C | - | - | 0.76 mm | 6.26 m/s, 20° | - | - |
| 1777617660 | 17.78° C | - | - | 2.29 mm | 5.36 m/s, 59° | - | - |
| 1777617025 | 17.78° C | - | - | 2.29 mm | 4.47 m/s, 53° | - | - |
| 1777616389 | 17.78° C | - | - | 2.29 mm | 6.26 m/s, 65° | - | - |
| 1777615753 | 18.33° C | - | - | 2.29 mm | 6.71 m/s, 20° | - | - |
| 1777615117 | 18.33° C | - | - | 2.29 mm | 4.47 m/s, 44° | - | - |
| 1777614482 | 18.33° C | - | - | 2.29 mm | 5.81 m/s, 44° | - | - |
| 1777613846 | 18.33° C | - | - | 0.51 mm | 4.47 m/s, 20° | - | - |
| 1777613210 | 18.33° C | - | - | 0.51 mm | 2.68 m/s, 23° | - | - |
| 1777612574 | 18.89° C | - | - | 0.51 mm | 3.13 m/s, 86° | - | - |
| 1777611938 | 18.89° C | - | - | 0.51 mm | 4.92 m/s, 69° | - | - |
* Rain latest hour (hover to see other rain measurements)
** Current wind speed in m/s (hover to see current wind gust speed)